Flag for Germany Weather past 2 weeks in Norderstedt, Schleswig-Holstein, Germany

Now
66 °F

Scattered clouds.


Feels Like: 66 °F
Forecast: 55 / 66 °F
Wind: 7 mph from West

Location: Hamburg-Fuhlsbuettel

Current Time: Sep 30, 2014 at 4:52:54 PM

Latest Report: Sep 30, 2014 at 4:20 PM


Visibility: N/A

Pressure: 30.21 "Hg

Humidity: 78%

Dew point: 59 °F

Location of NorderstedtLocation

Historic Weather in Norderstedt — Graph

°F

Norderstedt temperature yesterday

Maximum temperature yesterday: 72 °F (at 2:50 PM)
Minimum temperature yesterday: 50 °F (at 4:20 AM)
Average temperature yesterday: 61 °F

Past Weeks' High & Low Weather Summary

 TemperatureHumidityPressure
High75 °F (Sep 15, 3:20 PM)100% (Sep 16, 4:20 AM)30.33 "Hg (Sep 16, 4:20 AM)
Low39 °F (Sep 23, 5:50 AM)50% (Sep 18, 3:50 PM)29.74 "Hg (Sep 24, 4:20 PM)
Average60 °F80%30.03 "Hg
* Reported Sep 15 3:20 PM — Sep 30 3:50 PM, Norderstedt, Weather by CustomWeather, © 2014

Note: Actual official high and low records may vary slightly from our data, if they occured in-between our weather recording intervals... More about our weather records

Advertising

Norderstedt weather history for previous 24 hours

 ConditionsComfort  
Time TempWeatherWind HumidityBarometerVisibility
3:50 PM
Sep 30
66 °FBroken clouds.9 mph83%30.21 "HgN/A
3:20 PM66 °FPartly sunny.9 mph83%30.21 "Hg5 mi
2:50 PM66 °FBroken clouds.10 mph78%30.21 "HgN/A
2:20 PM66 °FBroken clouds.10 mph83%30.21 "HgN/A
1:50 PM66 °FBroken clouds.7 mph83%30.21 "Hg5 mi
1:20 PM64 °FPartly sunny.3 mph88%30.21 "Hg4 mi
12:50 PM63 °FPartly sunny.6 mph94%30.21 "Hg4 mi
12:20 PM64 °FBroken clouds.7 mph88%30.21 "Hg4 mi
11:50 AM63 °FFog.5 mph94%30.21 "Hg2 mi
11:20 AM61 °FLight rain. Fog.3 mph100%30.21 "Hg2 mi
10:50 AM63 °FLight rain. Fog.7 mph88%30.18 "Hg2 mi
10:20 AM63 °FFog.6 mph94%30.18 "Hg2 mi
9:50 AM61 °FFog.3 mph100%30.18 "Hg2 mi
9:20 AM61 °FLight rain. Fog.7 mph94%30.18 "Hg2 mi
8:50 AM61 °FLight rain. Fog.5 mph94%30.18 "Hg2 mi
8:20 AM61 °FFog.5 mph94%30.15 "Hg2 mi
7:50 AM59 °FFog.3 mph100%30.18 "Hg2 mi
7:20 AM61 °FFog.2 mph94%30.15 "Hg2 mi
6:50 AM61 °FFog.5 mph100%30.18 "Hg2 mi
6:20 AM61 °FFog.3 mph100%30.15 "Hg2 mi
5:50 AM61 °FFog.2 mph100%30.15 "Hg2 mi
5:20 AM61 °FFog.2 mph94%30.15 "Hg2 mi
4:50 AM61 °FFog.2 mph94%30.15 "Hg3 mi
4:20 AM61 °FFog.3 mph94%30.15 "Hg3 mi
3:50 AM61 °FFog.3 mph94%30.15 "Hg3 mi
3:20 AM61 °FPassing clouds.2 mph94%30.15 "Hg5 mi
2:50 AM59 °FClear.2 mph100%30.15 "Hg5 mi
2:20 AM61 °FPassing clouds.3 mph94%30.15 "HgN/A
1:50 AM59 °FLight rain. Passing clouds.2 mph100%30.15 "HgN/A
1:20 AM59 °FPartly cloudy.1 mph100%30.15 "HgN/A
12:50 AM61 °FLight rain. Partly cloudy.3 mph94%30.15 "HgN/A
12:20 AM61 °FLight rain. Partly cloudy.1 mph94%30.18 "HgN/A
11:50 PM
Sep 29
61 °FLight rain. Clear.2 mph94%30.18 "HgN/A
11:20 PM61 °FLight rain. Clear.2 mph94%30.15 "HgN/A
10:50 PM63 °FPassing clouds.2 mph88%30.15 "HgN/A
10:20 PM63 °FPassing clouds.2 mph88%30.15 "HgN/A
9:50 PM63 °FPassing clouds.6 mph88%30.15 "HgN/A
9:20 PM63 °FPassing clouds.7 mph88%30.15 "HgN/A
8:50 PM64 °FPartly cloudy.6 mph83%30.15 "HgN/A
8:20 PM66 °FPassing clouds.8 mph78%30.15 "HgN/A
7:50 PM66 °FPartly sunny.5 mph78%30.15 "HgN/A
7:20 PM68 °FBroken clouds.6 mph73%30.15 "HgN/A
6:50 PM68 °FBroken clouds.3 mph78%30.15 "HgN/A
6:20 PM68 °FBroken clouds.2 mph73%30.15 "HgN/A
5:50 PM70 °FBroken clouds.3 mph69%30.15 "HgN/A
5:20 PM70 °FBroken clouds.3 mph69%30.15 "HgN/A
4:50 PM72 °FBroken clouds.2 mph65%30.15 "HgN/A
4:20 PM72 °FBroken clouds.1 mph65%30.15 "HgN/A
Weather by CustomWeather, © 2014

See weather overviewHow to use our weather pages